COSMOS 2251 DEB, 37498

Orbit data source: Space-Track

COSMOS 2251 DEB, 37498 is space debris in LEO originally from a launch on Wed, 16 Jun 1993 UTC launched from the Plesetsk Missile And Space Complex (PKMTR). The debris from Iridium 33, an American commercial communications satellite, has been tracked extensively since its accidental collision with the defunct Russian satellite Cosmos 2251 in 2009. This event, occurring at high speed in low Earth orbit (LEO), generated thousands of pieces of space debris, significantly increasing the risk of further collisions. The Iridium 33 debris cloud has impacted space traffic management and orbital debris mitigation strategies, making it a subject of ongoing study in space situational awareness.

Loading next visibility...
Identifier
37498, 1993-036BMB
Orbit
LEO
Country
Flag of CISCIS
Related business
Manufacturer
Unknown
Mission
Spacecraft
Bus & Motor
Unknown
Mass
Unknown
Launch date (UTC)
1993-06-16 (33 years ago)
Launch vehicle
Unknown
Launch site
Plesetsk Missile And Space Complex (PKMTR)
Object type
Payload
Rocket body
Debris
Shape & HBR
Unknown shape, 0.1 m
Radar Cross Section
Small (<0.1 m²)

Expand to show TLE details & history
Last TLE update: 6 days ago

TLE from 6 days ago
0 COSMOS 2251 DEB
1 37498U 93036BMB 26201.07019318  .00001686  00000-0  38619-3 0  9993
2 37498  74.0363 128.2377 0010910 150.4797 209.6985 14.56379263685464
Epoch: 2026-07-20T01:41Z
TLE epoch observation values (Epoch: 2026-07-20T01:41:04.690Z)
Latitude
-0.00003°
Longitude
165.10863°
Altitude
714.241 km
Speed
7.495 km/s
True Right ascension
08h 32m 57s
True Declination
0° 00' 00"
Sunlit
Object was in daylight at epoch
Visualization orbit readout
Latitude
Unknown
Longitude
Unknown
Altitude
Unknown
Speed
Unknown
Apparent Right ascension
Unknown
Apparent Declination
Unknown
Sunlit
N/A
Visualization observer readout
Local Sidereal Time
23:11:44
Azimuth
Unknown
Elevation
Unknown
Doppler factor
Unknown
Orbital elements
Apogee altitude
710.216 km
Perigee altitude
694.766 km
Semi-major axis
7,080.628 km
Eccentricity
0.00109
Inclination
74.0363°
RAAN
128.2377°
Arg. of periapsis
150.4797°
True anomaly
209.63663°
Mean anomaly
209.6985°
Eccentric anomaly
209.66756°
Mean motion
3.6428 °/min
Orbital period
98.83 mins
BSTAR
0.00038619
Loading maneuver chart data...
Computing Atmospheric mass density...

Documentation

Showing up to 5 results
|